Tracking 31027 objects as of 19-Jul-2025
HD Live streaming from Space Station
objects crossing your sky now

STARLINK-31267

Track STARLINK-31267 now!
10-day predictions


NORAD ID: 59468
Int'l Code: 2024-068P
Perigee: 487.8 km
Apogee: 489.3 km
Inclination: 43.0 °
Period: 94.2 minutes
Semi major axis: 6859 km
RCS: Unknown
Launch date: April 10, 2024
Source: United States (US)
Launch site: AIR FORCE EASTERN TEST RANGE (AFETR)
Your satellite tracking list
Your tracking list is empty




NASA's NSSDC Master Catalog

Two Line Element Set (TLE):
1 59468U 24068P   25199.50394242  .00008052  00000-0  29696-3 0  9997
2 59468  43.0005 273.0392 0001110 299.9958  60.0783 15.28115107 72752
Source of the keplerian elements: AFSPC